Year,Month,Day,Hour,Minute,Value (Times are PST for windgust in km/hr)
2012,03,11,00,14,3.20
2012,03,11,00,15,3.20
2012,03,11,00,34,4.80
2012,03,11,00,35,1.60
2012,03,11,00,37,1.60
2012,03,11,00,38,1.60
2012,03,11,00,40,6.40
2012,03,11,00,41,4.80
2012,03,11,00,42,1.60
2012,03,11,00,48,1.60
2012,03,11,00,49,6.40
2012,03,11,00,50,3.20
2012,03,11,01,03,1.60
2012,03,11,01,05,1.60
2012,03,11,01,06,3.20
2012,03,11,01,08,4.80
2012,03,11,01,09,1.60
2012,03,11,01,14,1.60
2012,03,11,01,52,1.60
2012,03,11,01,53,3.20
2012,03,11,03,25,1.60
2012,03,11,03,26,1.60
2012,03,11,03,29,3.20
2012,03,11,03,30,4.80
2012,03,11,03,31,4.80
2012,03,11,03,32,3.20
2012,03,11,03,33,4.80
2012,03,11,03,34,3.20
2012,03,11,03,46,1.60
2012,03,11,03,49,6.40
2012,03,11,03,50,4.80
2012,03,11,03,51,4.80
2012,03,11,03,52,1.60
2012,03,11,03,54,1.60
2012,03,11,04,03,4.80
2012,03,11,04,04,3.20
2012,03,11,04,05,1.60
2012,03,11,04,06,4.80
2012,03,11,04,07,3.20
2012,03,11,04,08,4.80
2012,03,11,04,09,4.80
2012,03,11,04,10,4.80
2012,03,11,04,11,3.20
2012,03,11,04,13,1.60
2012,03,11,04,14,4.80
2012,03,11,04,15,4.80
2012,03,11,04,16,3.20
2012,03,11,04,17,3.20
2012,03,11,04,18,1.60
2012,03,11,04,21,4.80
2012,03,11,04,22,4.80
2012,03,11,04,23,11.30
2012,03,11,04,24,6.40
2012,03,11,04,25,6.40
2012,03,11,04,26,8.10
2012,03,11,04,27,8.10
2012,03,11,04,28,6.40
2012,03,11,04,29,8.10
2012,03,11,04,30,9.60
2012,03,11,04,31,11.30
2012,03,11,04,32,11.30
2012,03,11,04,33,16.10
2012,03,11,04,34,16.10
2012,03,11,04,35,9.60
2012,03,11,04,36,8.10
2012,03,11,04,37,6.40
2012,03,11,04,41,3.20
2012,03,11,04,42,9.60
2012,03,11,04,43,6.40
2012,03,11,04,44,12.90
2012,03,11,04,45,9.60
2012,03,11,04,46,4.80
2012,03,11,04,48,1.60
2012,03,11,04,50,3.20
2012,03,11,04,51,8.10
2012,03,11,04,52,12.90
2012,03,11,04,53,9.60
2012,03,11,04,54,8.10
2012,03,11,04,55,3.20
2012,03,11,04,59,8.10
2012,03,11,05,00,4.80
2012,03,11,05,01,6.40
2012,03,11,05,02,4.80
2012,03,11,05,04,8.10
2012,03,11,05,05,8.10
2012,03,11,05,06,3.20
2012,03,11,05,09,1.60
2012,03,11,05,10,6.40
2012,03,11,05,11,8.10
2012,03,11,05,15,4.80
2012,03,11,05,16,6.40
2012,03,11,05,17,8.10
2012,03,11,05,18,8.10
2012,03,11,05,19,9.60
2012,03,11,05,20,8.10
2012,03,11,05,21,9.60
2012,03,11,05,22,9.60
2012,03,11,05,23,6.40
2012,03,11,05,24,8.10
2012,03,11,05,25,6.40
2012,03,11,05,26,8.10
2012,03,11,05,27,9.60
2012,03,11,05,28,11.30
2012,03,11,05,29,9.60
2012,03,11,05,30,4.80
2012,03,11,05,31,11.30
2012,03,11,05,32,11.30
2012,03,11,05,33,9.60
2012,03,11,05,34,9.60
2012,03,11,05,35,8.10
2012,03,11,05,36,4.80
2012,03,11,05,37,8.10
2012,03,11,05,38,6.40
2012,03,11,05,39,8.10
2012,03,11,05,40,11.30
2012,03,11,05,41,9.60
2012,03,11,05,42,8.10
2012,03,11,05,43,8.10
2012,03,11,05,44,8.10
2012,03,11,05,45,8.10
2012,03,11,05,46,14.50
2012,03,11,05,47,8.10
2012,03,11,05,48,11.30
2012,03,11,05,49,16.10
2012,03,11,05,50,6.40
2012,03,11,05,51,11.30
2012,03,11,05,52,14.50
2012,03,11,05,53,9.60
2012,03,11,05,54,8.10
2012,03,11,05,55,8.10
2012,03,11,05,56,17.70
2012,03,11,05,57,9.60
2012,03,11,05,58,19.30
2012,03,11,05,59,9.60
2012,03,11,06,00,8.10
2012,03,11,06,01,11.30
2012,03,11,06,02,9.60
2012,03,11,06,03,17.70
2012,03,11,06,04,11.30
2012,03,11,06,05,4.80
2012,03,11,06,06,14.50
2012,03,11,06,07,12.90
2012,03,11,06,08,11.30
2012,03,11,06,09,9.60
2012,03,11,06,10,6.40
2012,03,11,06,11,9.60
2012,03,11,06,12,16.10
2012,03,11,06,13,17.70
2012,03,11,06,14,16.10
2012,03,11,06,15,11.30
2012,03,11,06,16,9.60
2012,03,11,06,17,12.90
2012,03,11,06,18,11.30
2012,03,11,06,19,9.60
2012,03,11,06,20,12.90
2012,03,11,06,21,16.10
2012,03,11,06,22,16.10
2012,03,11,06,23,11.30
2012,03,11,06,24,12.90
2012,03,11,06,25,9.60
2012,03,11,06,26,8.10
2012,03,11,06,27,11.30
2012,03,11,06,28,12.90
2012,03,11,06,29,16.10
2012,03,11,06,30,8.10
2012,03,11,06,31,9.60
2012,03,11,06,32,20.90
2012,03,11,06,33,16.10
2012,03,11,06,34,16.10
2012,03,11,06,35,14.50
2012,03,11,06,36,11.30
2012,03,11,06,37,11.30
2012,03,11,06,38,17.70
2012,03,11,06,39,17.70
2012,03,11,06,40,8.10
2012,03,11,06,41,17.70
2012,03,11,06,42,9.60
2012,03,11,06,43,17.70
2012,03,11,06,44,14.50
2012,03,11,06,45,19.30
2012,03,11,06,46,17.70
2012,03,11,06,47,19.30
2012,03,11,06,48,14.50
2012,03,11,06,49,19.30
2012,03,11,06,50,8.10
2012,03,11,06,51,17.70
2012,03,11,06,52,12.90
2012,03,11,06,53,17.70
2012,03,11,06,54,14.50
2012,03,11,06,55,16.10
2012,03,11,06,56,17.70
2012,03,11,06,57,17.70
2012,03,11,06,58,16.10
2012,03,11,06,59,19.30
2012,03,11,07,00,16.10
2012,03,11,07,01,22.50
2012,03,11,07,02,19.30
2012,03,11,07,03,9.60
2012,03,11,07,04,8.10
2012,03,11,07,05,14.50
2012,03,11,07,06,11.30
2012,03,11,07,07,8.10
2012,03,11,07,08,8.10
2012,03,11,07,09,14.50
2012,03,11,07,10,11.30
2012,03,11,07,11,14.50
2012,03,11,07,12,11.30
2012,03,11,07,13,16.10
2012,03,11,07,14,8.10
2012,03,11,07,15,9.60
2012,03,11,07,16,11.30
2012,03,11,07,17,14.50
2012,03,11,07,18,17.70
2012,03,11,07,19,12.90
2012,03,11,07,20,8.10
2012,03,11,07,21,12.90
2012,03,11,07,22,14.50
2012,03,11,07,23,8.10
2012,03,11,07,24,11.30
2012,03,11,07,25,11.30
2012,03,11,07,26,16.10
2012,03,11,07,27,16.10
2012,03,11,07,28,14.50
2012,03,11,07,29,16.10
2012,03,11,07,30,16.10
2012,03,11,07,31,19.30
2012,03,11,07,32,16.10
2012,03,11,07,33,12.90
2012,03,11,07,34,16.10
2012,03,11,07,35,14.50
2012,03,11,07,36,16.10
2012,03,11,07,37,16.10
2012,03,11,07,38,22.50
2012,03,11,07,39,11.30
2012,03,11,07,40,14.50
2012,03,11,07,41,12.90
2012,03,11,07,42,19.30
2012,03,11,07,43,12.90
2012,03,11,07,44,20.90
2012,03,11,07,45,14.50
2012,03,11,07,46,17.70
2012,03,11,07,47,24.20
2012,03,11,07,48,11.30
2012,03,11,07,49,11.30
2012,03,11,07,50,16.10
2012,03,11,07,51,12.90
2012,03,11,07,52,11.30
2012,03,11,07,53,19.30
2012,03,11,07,54,8.10
2012,03,11,07,55,14.50
2012,03,11,07,56,9.60
2012,03,11,07,57,11.30
2012,03,11,07,58,11.30
2012,03,11,07,59,9.60
2012,03,11,08,00,6.40
2012,03,11,08,01,8.10
2012,03,11,08,02,12.90
2012,03,11,08,03,9.60
2012,03,11,08,04,9.60
2012,03,11,08,05,11.30
2012,03,11,08,06,8.10
2012,03,11,08,07,17.70
2012,03,11,08,08,16.10
2012,03,11,08,09,9.60
2012,03,11,08,10,17.70
2012,03,11,08,11,14.50
2012,03,11,08,12,17.70
2012,03,11,08,13,16.10
2012,03,11,08,14,17.70
2012,03,11,08,15,12.90
2012,03,11,08,16,17.70
2012,03,11,08,17,12.90
2012,03,11,08,18,17.70
2012,03,11,08,19,19.30
2012,03,11,08,20,9.60
2012,03,11,08,21,14.50
2012,03,11,08,22,11.30
2012,03,11,08,23,14.50
2012,03,11,08,24,11.30
2012,03,11,08,25,8.10
2012,03,11,08,26,11.30
2012,03,11,08,27,11.30
2012,03,11,08,28,11.30
2012,03,11,08,29,14.50
2012,03,11,08,30,14.50
2012,03,11,08,31,9.60
2012,03,11,08,32,9.60
2012,03,11,08,33,9.60
2012,03,11,08,34,6.40
2012,03,11,08,35,14.50
2012,03,11,08,36,11.30
2012,03,11,08,37,16.10
2012,03,11,08,38,11.30
2012,03,11,08,39,11.30
2012,03,11,08,40,16.10
2012,03,11,08,41,11.30
2012,03,11,08,42,9.60
2012,03,11,08,43,12.90
2012,03,11,08,44,11.30
2012,03,11,08,45,17.70
2012,03,11,08,46,14.50
2012,03,11,08,47,22.50
2012,03,11,08,48,20.90
2012,03,11,08,49,11.30
2012,03,11,08,50,19.30
2012,03,11,08,51,19.30
2012,03,11,08,52,25.70
2012,03,11,08,53,24.20
2012,03,11,08,54,16.10
2012,03,11,08,55,17.70
2012,03,11,08,56,22.50
2012,03,11,08,57,19.30
2012,03,11,08,58,14.50
2012,03,11,08,59,22.50
2012,03,11,09,00,16.10
2012,03,11,09,01,24.20
2012,03,11,09,02,16.10
2012,03,11,09,03,24.20
2012,03,11,09,04,22.50
2012,03,11,09,05,25.70
2012,03,11,09,06,19.30
2012,03,11,09,07,19.30
2012,03,11,09,08,19.30
2012,03,11,09,09,19.30
2012,03,11,09,10,25.70
2012,03,11,09,11,24.20
2012,03,11,09,12,27.40
2012,03,11,09,13,17.70
2012,03,11,09,14,33.80
2012,03,11,09,15,27.40
2012,03,11,09,16,14.50
2012,03,11,09,17,27.40
2012,03,11,09,18,20.90
2012,03,11,09,19,16.10
2012,03,11,09,20,24.20
2012,03,11,09,21,17.70
2012,03,11,09,22,17.70
2012,03,11,09,23,22.50
2012,03,11,09,24,20.90
2012,03,11,09,25,25.70
2012,03,11,09,26,20.90
2012,03,11,09,27,24.20
2012,03,11,09,28,25.70
2012,03,11,09,29,22.50
2012,03,11,09,30,24.20
2012,03,11,09,31,25.70
2012,03,11,09,32,32.20
2012,03,11,09,33,29.00
2012,03,11,09,34,19.30
2012,03,11,09,35,20.90
2012,03,11,09,36,17.70
2012,03,11,09,37,27.40
2012,03,11,09,38,38.60
2012,03,11,09,39,20.90
2012,03,11,09,40,20.90
2012,03,11,09,41,20.90
2012,03,11,09,42,24.20
2012,03,11,09,43,24.20
2012,03,11,09,44,27.40
2012,03,11,09,45,25.70
2012,03,11,09,46,25.70
2012,03,11,09,47,16.10
2012,03,11,09,48,11.30
2012,03,11,09,49,33.80
2012,03,11,09,50,30.60
2012,03,11,09,51,16.10
2012,03,11,09,52,37.00
2012,03,11,09,53,22.50
2012,03,11,09,54,24.20
2012,03,11,09,55,16.10
2012,03,11,09,56,17.70
2012,03,11,09,57,14.50
2012,03,11,09,58,11.30
2012,03,11,09,59,24.20
2012,03,11,10,00,17.70
2012,03,11,10,01,16.10
2012,03,11,10,02,24.20
2012,03,11,10,03,27.40
2012,03,11,10,04,14.50
2012,03,11,10,05,17.70
2012,03,11,10,06,14.50
2012,03,11,10,07,29.00
2012,03,11,10,08,40.20
2012,03,11,10,09,30.60
2012,03,11,10,10,24.20
2012,03,11,10,11,33.80
2012,03,11,10,12,20.90
2012,03,11,10,13,16.10
2012,03,11,10,14,16.10
2012,03,11,10,15,17.70
2012,03,11,10,16,30.60
2012,03,11,10,17,22.50
2012,03,11,10,18,16.10
2012,03,11,10,19,27.40
2012,03,11,10,20,43.50
2012,03,11,10,21,24.20
2012,03,11,10,22,25.70
2012,03,11,10,23,25.70
2012,03,11,10,24,30.60
2012,03,11,10,25,24.20
2012,03,11,10,26,24.20
2012,03,11,10,27,29.00
2012,03,11,10,28,29.00
2012,03,11,10,29,30.60
2012,03,11,10,30,22.50
2012,03,11,10,31,35.40
2012,03,11,10,32,35.40
2012,03,11,10,33,38.60
2012,03,11,10,34,32.20
2012,03,11,10,35,30.60
2012,03,11,10,36,29.00
2012,03,11,10,37,35.40
2012,03,11,10,38,20.90
2012,03,11,10,39,33.80
2012,03,11,10,40,37.00
2012,03,11,10,41,25.70
2012,03,11,10,42,40.20
2012,03,11,10,43,40.20
2012,03,11,10,44,30.60
2012,03,11,10,45,35.40
2012,03,11,10,46,30.60
2012,03,11,10,47,32.20
2012,03,11,10,48,27.40
2012,03,11,10,49,19.30
2012,03,11,10,50,24.20
2012,03,11,10,51,33.80
2012,03,11,10,52,20.90
2012,03,11,10,53,37.00
2012,03,11,10,54,30.60
2012,03,11,10,55,43.50
2012,03,11,10,56,33.80
2012,03,11,10,57,41.80
2012,03,11,10,58,30.60
2012,03,11,10,59,33.80
2012,03,11,11,00,35.40
2012,03,11,11,01,20.90
2012,03,11,11,02,38.60
2012,03,11,11,03,29.00
2012,03,11,11,04,30.60
2012,03,11,11,05,22.50
2012,03,11,11,06,20.90
2012,03,11,11,07,25.70
2012,03,11,11,08,30.60
2012,03,11,11,09,27.40
2012,03,11,11,10,29.00
2012,03,11,11,11,27.40
2012,03,11,11,12,24.20
2012,03,11,11,13,24.20
2012,03,11,11,14,25.70
2012,03,11,11,15,32.20
2012,03,11,11,16,29.00
2012,03,11,11,17,19.30
2012,03,11,11,18,19.30
2012,03,11,11,19,24.20
2012,03,11,11,20,20.90
2012,03,11,11,21,33.80
2012,03,11,11,22,33.80
2012,03,11,11,23,32.20
2012,03,11,11,24,27.40
2012,03,11,11,25,41.80
2012,03,11,11,26,33.80
2012,03,11,11,27,35.40
2012,03,11,11,28,37.00
2012,03,11,11,29,33.80
2012,03,11,11,30,33.80
2012,03,11,11,31,27.40
2012,03,11,11,32,32.20
2012,03,11,11,33,20.90
2012,03,11,11,34,33.80
2012,03,11,11,35,12.90
2012,03,11,11,36,25.70
2012,03,11,11,37,29.00
2012,03,11,11,38,45.10
2012,03,11,11,39,35.40
2012,03,11,11,40,29.00
2012,03,11,11,41,29.00
2012,03,11,11,42,29.00
2012,03,11,11,43,33.80
2012,03,11,11,44,25.70
2012,03,11,11,45,29.00
2012,03,11,11,46,24.20
2012,03,11,11,47,40.20
2012,03,11,11,48,24.20
2012,03,11,11,49,29.00
2012,03,11,11,50,20.90
2012,03,11,11,51,29.00
2012,03,11,11,52,33.80
2012,03,11,11,53,27.40
2012,03,11,11,54,33.80
2012,03,11,11,55,20.90
2012,03,11,11,56,38.60
2012,03,11,11,57,30.60
2012,03,11,11,58,33.80
2012,03,11,11,59,40.20
2012,03,11,12,00,33.80
2012,03,11,12,01,33.80
2012,03,11,12,02,25.70
2012,03,11,12,03,35.40
2012,03,11,12,04,32.20
2012,03,11,12,05,32.20
2012,03,11,12,06,41.80
2012,03,11,12,07,32.20
2012,03,11,12,08,20.90
2012,03,11,12,09,29.00
2012,03,11,12,10,25.70
2012,03,11,12,11,32.20
2012,03,11,12,12,45.10
2012,03,11,12,13,38.60
2012,03,11,12,14,29.00
2012,03,11,12,15,16.10
2012,03,11,12,16,25.70
2012,03,11,12,17,37.00
2012,03,11,12,18,38.60
2012,03,11,12,19,22.50
2012,03,11,12,20,25.70
2012,03,11,12,21,20.90
2012,03,11,12,22,24.20
2012,03,11,12,23,33.80
2012,03,11,12,24,30.60
2012,03,11,12,25,29.00
2012,03,11,12,26,29.00
2012,03,11,12,27,25.70
2012,03,11,12,28,24.20
2012,03,11,12,29,33.80
2012,03,11,12,30,14.50
2012,03,11,12,31,25.70
2012,03,11,12,32,27.40
2012,03,11,12,33,22.50
2012,03,11,12,34,32.20
2012,03,11,12,35,27.40
2012,03,11,12,36,29.00
2012,03,11,12,37,40.20
2012,03,11,12,38,33.80
2012,03,11,12,39,22.50
2012,03,11,12,40,27.40
2012,03,11,12,41,24.20
2012,03,11,12,42,24.20
2012,03,11,12,43,11.30
2012,03,11,12,44,22.50
2012,03,11,12,45,25.70
2012,03,11,12,46,27.40
2012,03,11,12,47,27.40
2012,03,11,12,48,27.40
2012,03,11,12,49,30.60
2012,03,11,12,50,27.40
2012,03,11,12,51,32.20
2012,03,11,12,52,37.00
2012,03,11,12,53,30.60
2012,03,11,12,54,32.20
2012,03,11,12,55,35.40
2012,03,11,12,56,35.40
2012,03,11,12,57,25.70
2012,03,11,12,58,25.70
2012,03,11,12,59,27.40
2012,03,11,13,00,45.10
2012,03,11,13,01,40.20
2012,03,11,13,02,22.50
2012,03,11,13,03,30.60
2012,03,11,13,04,22.50
2012,03,11,13,05,35.40
2012,03,11,13,06,25.70
2012,03,11,13,07,35.40
2012,03,11,13,08,32.20
2012,03,11,13,09,30.60
2012,03,11,13,10,24.20
2012,03,11,13,11,27.40
2012,03,11,13,12,30.60
2012,03,11,13,13,35.40
2012,03,11,13,14,25.70
2012,03,11,13,15,41.80
2012,03,11,13,16,33.80
2012,03,11,13,17,33.80
2012,03,11,13,18,24.20
2012,03,11,13,19,22.50
2012,03,11,13,20,27.40
2012,03,11,13,21,29.00
2012,03,11,13,22,30.60
2012,03,11,13,23,20.90
2012,03,11,13,24,35.40
2012,03,11,13,25,30.60
2012,03,11,13,26,25.70
2012,03,11,13,27,32.20
2012,03,11,13,28,22.50
2012,03,11,13,29,29.00
2012,03,11,13,30,32.20
2012,03,11,13,31,24.20
2012,03,11,13,32,33.80
2012,03,11,13,33,27.40
2012,03,11,13,34,29.00
2012,03,11,13,35,33.80
2012,03,11,13,36,32.20
2012,03,11,13,37,27.40
2012,03,11,13,38,37.00
2012,03,11,13,39,35.40
2012,03,11,13,40,33.80
2012,03,11,13,41,33.80
2012,03,11,13,42,25.70
2012,03,11,13,43,24.20
2012,03,11,13,44,35.40
2012,03,11,13,45,25.70
2012,03,11,13,46,25.70
2012,03,11,13,47,29.00
2012,03,11,13,48,38.60
2012,03,11,13,49,30.60
2012,03,11,13,50,29.00
2012,03,11,13,51,27.40
2012,03,11,13,52,35.40
2012,03,11,13,53,24.20
2012,03,11,13,54,27.40
2012,03,11,13,55,16.10
2012,03,11,13,56,16.10
2012,03,11,13,57,30.60
2012,03,11,13,58,29.00
2012,03,11,13,59,38.60
2012,03,11,14,00,22.50
2012,03,11,14,01,24.20
2012,03,11,14,02,20.90
2012,03,11,14,03,24.20
2012,03,11,14,04,25.70
2012,03,11,14,05,25.70
2012,03,11,14,06,30.60
2012,03,11,14,07,30.60
2012,03,11,14,08,25.70
2012,03,11,14,09,30.60
2012,03,11,14,10,22.50
2012,03,11,14,11,22.50
2012,03,11,14,12,17.70
2012,03,11,14,13,17.70
2012,03,11,14,14,17.70
2012,03,11,14,15,33.80
2012,03,11,14,16,30.60
2012,03,11,14,17,35.40
2012,03,11,14,18,33.80
2012,03,11,14,19,35.40
2012,03,11,14,20,30.60
2012,03,11,14,21,22.50
2012,03,11,14,22,38.60
2012,03,11,14,23,33.80
2012,03,11,14,24,25.70
2012,03,11,14,25,30.60
2012,03,11,14,26,29.00
2012,03,11,14,27,27.40
2012,03,11,14,28,35.40
2012,03,11,14,29,35.40
2012,03,11,14,30,32.20
2012,03,11,14,31,29.00
2012,03,11,14,32,32.20
2012,03,11,14,33,24.20
2012,03,11,14,34,29.00
2012,03,11,14,35,27.40
2012,03,11,14,36,32.20
2012,03,11,14,37,30.60
2012,03,11,14,38,27.40
2012,03,11,14,39,29.00
2012,03,11,14,40,37.00
2012,03,11,14,41,33.80
2012,03,11,14,42,37.00
2012,03,11,14,43,35.40
2012,03,11,14,44,17.70
2012,03,11,14,45,33.80
2012,03,11,14,46,29.00
2012,03,11,14,47,24.20
2012,03,11,14,48,27.40
2012,03,11,14,49,27.40
2012,03,11,14,50,32.20
2012,03,11,14,51,27.40
2012,03,11,14,52,29.00
2012,03,11,14,53,25.70
2012,03,11,14,54,24.20
2012,03,11,14,55,33.80
2012,03,11,14,56,22.50
2012,03,11,14,57,25.70
2012,03,11,14,58,25.70
2012,03,11,14,59,33.80
2012,03,11,15,00,24.20
2012,03,11,15,01,32.20
2012,03,11,15,02,30.60
2012,03,11,15,03,25.70
2012,03,11,15,04,27.40
2012,03,11,15,05,27.40
2012,03,11,15,06,24.20
2012,03,11,15,07,27.40
2012,03,11,15,08,30.60
2012,03,11,15,09,22.50
2012,03,11,15,10,25.70
2012,03,11,15,11,35.40
2012,03,11,15,12,24.20
2012,03,11,15,13,30.60
2012,03,11,15,14,27.40
2012,03,11,15,15,25.70
2012,03,11,15,16,22.50
2012,03,11,15,17,16.10
2012,03,11,15,18,29.00
2012,03,11,15,19,24.20
2012,03,11,15,20,24.20
2012,03,11,15,21,29.00
2012,03,11,15,22,24.20
2012,03,11,15,23,22.50
2012,03,11,15,24,19.30
2012,03,11,15,25,25.70
2012,03,11,15,26,22.50
2012,03,11,15,27,24.20
2012,03,11,15,28,22.50
2012,03,11,15,29,30.60
2012,03,11,15,30,27.40
2012,03,11,15,31,25.70
2012,03,11,15,32,22.50
2012,03,11,15,33,17.70
2012,03,11,15,34,24.20
2012,03,11,15,35,22.50
2012,03,11,15,36,20.90
2012,03,11,15,37,20.90
2012,03,11,15,38,20.90
2012,03,11,15,39,24.20
2012,03,11,15,40,24.20
2012,03,11,15,41,20.90
2012,03,11,15,42,22.50
2012,03,11,15,43,22.50
2012,03,11,15,44,19.30
2012,03,11,15,45,24.20
2012,03,11,15,46,24.20
2012,03,11,15,47,25.70
2012,03,11,15,48,22.50
2012,03,11,15,49,17.70
2012,03,11,15,50,33.80
2012,03,11,15,51,22.50
2012,03,11,15,52,25.70
2012,03,11,15,53,17.70
2012,03,11,15,54,11.30
2012,03,11,15,55,19.30
2012,03,11,15,56,16.10
2012,03,11,15,57,16.10
2012,03,11,15,58,17.70
2012,03,11,15,59,17.70
2012,03,11,16,00,17.70
2012,03,11,16,01,20.90
2012,03,11,16,02,20.90
2012,03,11,16,03,24.20
2012,03,11,16,04,16.10
2012,03,11,16,05,19.30
2012,03,11,16,06,19.30
2012,03,11,16,07,16.10
2012,03,11,16,08,22.50
2012,03,11,16,09,24.20
2012,03,11,16,10,16.10
2012,03,11,16,11,20.90
2012,03,11,16,12,20.90
2012,03,11,16,13,22.50
2012,03,11,16,14,16.10
2012,03,11,16,15,27.40
2012,03,11,16,16,22.50
2012,03,11,16,17,17.70
2012,03,11,16,18,19.30
2012,03,11,16,19,27.40
2012,03,11,16,20,27.40
2012,03,11,16,21,24.20
2012,03,11,16,22,16.10
2012,03,11,16,23,30.60
2012,03,11,16,24,20.90
2012,03,11,16,25,24.20
2012,03,11,16,26,25.70
2012,03,11,16,27,27.40
2012,03,11,16,28,20.90
2012,03,11,16,29,22.50
2012,03,11,16,30,20.90
2012,03,11,16,31,29.00
2012,03,11,16,32,25.70
2012,03,11,16,33,17.70
2012,03,11,16,34,30.60
2012,03,11,16,35,25.70
2012,03,11,16,36,30.60
2012,03,11,16,37,27.40
2012,03,11,16,38,27.40
2012,03,11,16,39,25.70
2012,03,11,16,40,22.50
2012,03,11,16,41,19.30
2012,03,11,16,42,20.90
2012,03,11,16,43,19.30
2012,03,11,16,44,17.70
2012,03,11,16,45,22.50
2012,03,11,16,46,22.50
2012,03,11,16,47,22.50
2012,03,11,16,48,19.30
2012,03,11,16,49,14.50
2012,03,11,16,50,9.60
2012,03,11,16,51,11.30
2012,03,11,16,52,9.60
2012,03,11,16,53,24.20
2012,03,11,16,54,17.70
2012,03,11,16,55,19.30
2012,03,11,16,56,12.90
2012,03,11,16,57,19.30
2012,03,11,16,58,22.50
2012,03,11,16,59,32.20
2012,03,11,17,00,22.50
2012,03,11,17,01,22.50
2012,03,11,17,02,24.20
2012,03,11,17,03,22.50
2012,03,11,17,04,24.20
2012,03,11,17,05,22.50
2012,03,11,17,06,24.20
2012,03,11,17,07,11.30
2012,03,11,17,08,37.00
2012,03,11,17,09,33.80
2012,03,11,17,10,30.60
2012,03,11,17,11,22.50
2012,03,11,17,12,24.20
2012,03,11,17,13,20.90
2012,03,11,17,14,20.90
2012,03,11,17,15,24.20
2012,03,11,17,16,24.20
2012,03,11,17,17,27.40
2012,03,11,17,18,24.20
2012,03,11,17,19,22.50
2012,03,11,17,20,19.30
2012,03,11,17,21,16.10
2012,03,11,17,22,11.30
2012,03,11,17,23,16.10
2012,03,11,17,24,19.30
2012,03,11,17,25,20.90
2012,03,11,17,26,20.90
2012,03,11,17,27,25.70
2012,03,11,17,28,16.10
2012,03,11,17,29,19.30
2012,03,11,17,30,19.30
2012,03,11,17,31,20.90
2012,03,11,17,32,22.50
2012,03,11,17,33,25.70
2012,03,11,17,34,24.20
2012,03,11,17,35,17.70
2012,03,11,17,36,29.00
2012,03,11,17,37,25.70
2012,03,11,17,38,27.40
2012,03,11,17,39,27.40
2012,03,11,17,40,27.40
2012,03,11,17,41,24.20
2012,03,11,17,42,11.30
2012,03,11,17,43,27.40
2012,03,11,17,44,19.30
2012,03,11,17,45,12.90
2012,03,11,17,46,20.90
2012,03,11,17,47,19.30
2012,03,11,17,48,16.10
2012,03,11,17,49,11.30
2012,03,11,17,50,11.30
2012,03,11,17,51,9.60
2012,03,11,17,52,16.10
2012,03,11,17,53,25.70
2012,03,11,17,54,16.10
2012,03,11,17,55,16.10
2012,03,11,17,56,20.90
2012,03,11,17,57,19.30
2012,03,11,17,58,14.50
2012,03,11,17,59,19.30
2012,03,11,18,00,11.30
2012,03,11,18,01,17.70
2012,03,11,18,02,14.50
2012,03,11,18,03,14.50
2012,03,11,18,04,11.30
2012,03,11,18,05,17.70
2012,03,11,18,06,20.90
2012,03,11,18,07,16.10
2012,03,11,18,08,16.10
2012,03,11,18,09,22.50
2012,03,11,18,10,14.50
2012,03,11,18,11,9.60
2012,03,11,18,12,6.40
2012,03,11,18,13,9.60
2012,03,11,18,14,19.30
2012,03,11,18,15,19.30
2012,03,11,18,16,19.30
2012,03,11,18,17,19.30
2012,03,11,18,18,11.30
2012,03,11,18,19,16.10
2012,03,11,18,20,24.20
2012,03,11,18,21,14.50
2012,03,11,18,22,17.70
2012,03,11,18,23,22.50
2012,03,11,18,24,24.20
2012,03,11,18,25,16.10
2012,03,11,18,26,12.90
2012,03,11,18,27,8.10
2012,03,11,18,28,16.10
2012,03,11,18,29,14.50
2012,03,11,18,30,9.60
2012,03,11,18,31,14.50
2012,03,11,18,32,9.60
2012,03,11,18,33,9.60
2012,03,11,18,34,14.50
2012,03,11,18,35,24.20
2012,03,11,18,36,16.10
2012,03,11,18,37,16.10
2012,03,11,18,38,9.60
2012,03,11,18,39,19.30
2012,03,11,18,40,17.70
2012,03,11,18,41,11.30
2012,03,11,18,42,12.90
2012,03,11,18,43,16.10
2012,03,11,18,44,19.30
2012,03,11,18,45,19.30
2012,03,11,18,46,14.50
2012,03,11,18,47,14.50
2012,03,11,18,48,9.60
2012,03,11,18,49,11.30
2012,03,11,18,50,14.50
2012,03,11,18,51,14.50
2012,03,11,18,52,9.60
2012,03,11,18,53,14.50
2012,03,11,18,54,9.60
2012,03,11,18,55,9.60
2012,03,11,18,56,14.50
2012,03,11,18,57,3.20
2012,03,11,18,58,8.10
2012,03,11,18,59,8.10
2012,03,11,19,00,9.60
2012,03,11,19,01,9.60
2012,03,11,19,02,11.30
2012,03,11,19,03,16.10
2012,03,11,19,04,17.70
2012,03,11,19,05,16.10
2012,03,11,19,06,9.60
2012,03,11,19,07,19.30
2012,03,11,19,08,20.90
2012,03,11,19,09,9.60
2012,03,11,19,10,9.60
2012,03,11,19,11,9.60
2012,03,11,19,12,16.10
2012,03,11,19,13,9.60
2012,03,11,19,14,8.10
2012,03,11,19,15,4.80
2012,03,11,19,16,8.10
2012,03,11,19,17,9.60
2012,03,11,19,18,11.30
2012,03,11,19,19,14.50
2012,03,11,19,20,19.30
2012,03,11,19,21,17.70
2012,03,11,19,22,16.10
2012,03,11,19,23,9.60
2012,03,11,19,24,3.20
2012,03,11,19,25,4.80
2012,03,11,19,26,8.10
2012,03,11,19,27,6.40
2012,03,11,19,28,6.40
2012,03,11,19,29,4.80
2012,03,11,19,30,8.10
2012,03,11,19,31,8.10
2012,03,11,19,32,14.50
2012,03,11,19,33,6.40
2012,03,11,19,34,8.10
2012,03,11,19,35,6.40
2012,03,11,19,36,4.80
2012,03,11,19,37,8.10
2012,03,11,19,38,4.80
2012,03,11,19,39,11.30
2012,03,11,19,40,9.60
2012,03,11,19,41,9.60
2012,03,11,19,42,9.60
2012,03,11,19,43,1.60
2012,03,11,19,44,1.60
2012,03,11,19,45,6.40
2012,03,11,19,46,4.80
2012,03,11,19,47,3.20
2012,03,11,19,50,3.20
2012,03,11,19,51,3.20
2012,03,11,19,52,3.20
2012,03,11,19,54,6.40
2012,03,11,19,55,8.10
2012,03,11,19,56,9.60
2012,03,11,19,57,6.40
2012,03,11,19,58,6.40
2012,03,11,19,59,3.20
2012,03,11,20,00,1.60
2012,03,11,20,01,3.20
2012,03,11,20,02,3.20
2012,03,11,20,03,1.60
2012,03,11,20,04,1.60
2012,03,11,20,06,1.60
2012,03,11,20,07,3.20
2012,03,11,20,08,4.80
2012,03,11,20,09,4.80
2012,03,11,20,10,6.40
2012,03,11,20,11,8.10
2012,03,11,20,12,9.60
2012,03,11,20,13,9.60
2012,03,11,20,14,6.40
2012,03,11,20,15,1.60
2012,03,11,20,16,1.60
2012,03,11,20,17,9.60
2012,03,11,20,18,9.60
2012,03,11,20,19,6.40
2012,03,11,20,20,6.40
2012,03,11,20,21,3.20
2012,03,11,20,22,3.20
2012,03,11,20,23,1.60
2012,03,11,20,24,3.20
2012,03,11,20,25,3.20
2012,03,11,20,26,1.60
2012,03,11,20,35,4.80
2012,03,11,20,36,8.10
2012,03,11,20,38,4.80
2012,03,11,20,39,8.10
2012,03,11,20,40,4.80
2012,03,11,20,41,3.20
2012,03,11,20,42,6.40
2012,03,11,20,43,6.40
2012,03,11,20,44,6.40
2012,03,11,20,45,9.60
2012,03,11,20,46,9.60
2012,03,11,20,47,16.10
2012,03,11,20,48,19.30
2012,03,11,20,49,14.50
2012,03,11,20,50,25.70
2012,03,11,20,51,14.50
2012,03,11,20,52,14.50
2012,03,11,20,53,16.10
2012,03,11,20,54,14.50
2012,03,11,20,55,20.90
2012,03,11,20,56,14.50
2012,03,11,20,57,16.10
2012,03,11,20,58,11.30
2012,03,11,20,59,17.70
2012,03,11,21,00,9.60
2012,03,11,21,01,16.10
2012,03,11,21,02,14.50
2012,03,11,21,03,6.40
2012,03,11,21,04,11.30
2012,03,11,21,05,3.20
2012,03,11,21,06,9.60
2012,03,11,21,07,8.10
2012,03,11,21,08,12.90
2012,03,11,21,09,8.10
2012,03,11,21,10,3.20
2012,03,11,21,11,6.40
2012,03,11,21,12,11.30
2012,03,11,21,13,16.10
2012,03,11,21,14,12.90
2012,03,11,21,15,19.30
2012,03,11,21,16,16.10
2012,03,11,21,17,14.50
2012,03,11,21,18,16.10
2012,03,11,21,19,11.30
2012,03,11,21,20,9.60
2012,03,11,21,21,16.10
2012,03,11,21,22,11.30
2012,03,11,21,23,19.30
2012,03,11,21,24,20.90
2012,03,11,21,25,20.90
2012,03,11,21,26,12.90
2012,03,11,21,27,17.70
2012,03,11,21,28,19.30
2012,03,11,21,29,22.50